CW3157 Weather Reports


time (UTC)temp
C
wind
direction
speed
KPH
gust
KPH
rain 1hr
cm
rain 24hr
cm
rain mn
cm
humidity
%
barometer
mb
20260510081818 10 360 0.0 0.0 0.00 0.13 0.03 89 1010.8
20260510080818 10 360 0.0 3.2 0.00 0.13 0.03 89 1010.9
20260510080318 10 360 0.0 3.2 0.00 0.13 0.03 89 1010.9
20260510075818 10 360 1.6 3.2 0.00 0.13 0.03 89 1010.9
20260510074818 10 360 1.6 12.9 0.00 0.13 0.03 89 1011.0
20260510073818 10 309 3.2 16.1 0.00 0.13 0.03 89 1011.0
20260510073248 10 63 3.2 16.1 0.00 0.13 0.03 89 1011.2
20260510072818 10 63 1.6 16.1 0.00 0.13 0.03 89 1010.9
20260510072248 10 257 4.8 17.7 0.00 0.13 0.03 90 1010.7
20260510071818 8 25 0.0 17.7 0.00 0.13 0.03 89 1010.9
20260510071248 8 360 0.0 0.0 0.00 0.13 0.03 89 1010.3
20260510070818 8 360 0.0 0.0 0.00 0.13 0.03 89 1010.3
20260510070248 8 360 0.0 0.0 0.00 0.13 0.03 89 1010.3
20260510065818 8 360 0.0 0.0 0.03 0.13 0.03 89 1010.3
20260510065318 8 360 0.0 0.0 0.03 0.13 0.03 89 1010.2
20260510064818 8 360 0.0 1.6 0.03 0.13 0.03 89 1010.2
20260510064318 8 360 0.0 1.6 0.03 0.13 0.03 89 1010.2
20260510063818 9 360 0.0 1.6 0.03 0.13 0.03 89 1010.4
20260510063248 9 360 1.6 1.6 0.03 0.13 0.03 89 1010.4
20260510061818 10 360 0.0 11.3 0.03 0.13 0.03 89 1010.7
20260510061318 10 360 0.0 11.3 0.03 0.13 0.03 89 1010.8
20260510060748 10 28 1.6 8.0 0.03 0.13 0.03 89 1010.8
20260510060317 10 117 0.0 1.6 0.03 0.13 0.03 89 1010.6
20260510055818 10 117 0.0 4.8 0.00 0.10 0.00 89 1010.6
20260510055317 10 117 0.0 4.8 0.00 0.10 0.00 89 1010.4
20260510054317 10 117 1.6 4.8 0.00 0.10 0.00 89 1010.3
20260510053817 10 117 1.6 4.8 0.00 0.10 0.00 89 1010.3
20260510053247 10 117 1.6 4.8 0.00 0.10 0.00 89 1010.4
20260510052818 10 117 0.0 4.8 0.00 0.10 0.00 89 1010.4
20260510052247 10 117 0.0 3.2 0.00 0.10 0.00 89 1010.4
20260510051817 10 117 0.0 3.2 0.00 0.10 0.00 89 1010.5
20260510051317 10 117 0.0 3.2 0.00 0.10 0.00 89 1010.4
20260510050747 10 117 0.0 0.0 0.00 0.10 0.00 89 1010.4
20260510050317 10 117 0.0 0.0 0.00 0.10 0.00 89 1010.4
20260510045817 9 117 0.0 0.0 0.00 0.10 0.00 89 1010.4
20260510045317 9 117 0.0 0.0 0.00 0.10 0.00 89 1010.4
20260510044317 9 117 0.0 0.0 0.00 0.10 0.00 89 1010.4
20260510043817 9 117 0.0 0.0 0.00 0.10 0.00 89 1010.5
20260510043247 8 117 0.0 0.0 0.00 0.10 0.00 89 1010.4
20260510042817 8 117 0.0 0.0 0.00 0.10 0.00 88 1010.4
20260510042317 9 117 0.0 0.0 0.00 0.10 0.00 88 1010.5
20260510041817 8 117 0.0 0.0 0.00 0.10 0.00 88 1010.4
20260510041317 9 117 0.0 0.0 0.00 0.10 0.00 88 1010.6
20260510040817 8 117 0.0 0.0 0.00 0.10 0.00 88 1010.5
20260510040247 9 117 0.0 0.0 0.00 0.10 0.00 88 1010.7
20260510035817 9 117 0.0 0.0 0.00 0.10 0.00 88 1010.6
20260510035317 9 117 0.0 0.0 0.00 0.10 0.10 88 1010.6
20260510034817 9 117 0.0 0.0 0.00 0.10 0.10 88 1010.6
20260510034317 10 117 0.0 0.0 0.00 0.10 0.10 88 1010.6
20260510033817 10 117 0.0 0.0 0.00 0.10 0.10 88 1010.6
20260510032317 10 117 0.0 0.0 0.00 0.10 0.10 88 1010.6
20260510031817 10 117 0.0 0.0 0.00 0.10 0.10 88 1010.5
20260510031317 10 117 0.0 0.0 0.00 0.10 0.10 88 1010.4
20260510030817 10 117 0.0 0.0 0.00 0.10 0.10 88 1010.4
20260510030317 10 117 0.0 0.0 0.00 0.10 0.10 88 1010.4
20260510025817 10 117 0.0 0.0 0.00 0.10 0.10 88 1010.4
20260510025317 10 117 0.0 0.0 0.00 0.10 0.10 88 1010.4
20260510023816 10 117 0.0 1.6 0.00 0.10 0.10 88 1010.4
20260510023317 10 117 0.0 0.0 0.00 0.10 0.10 88 1010.4
20260510022816 10 117 0.0 0.0 0.00 0.10 0.10 88 1010.3
20260510022317 9 117 0.0 0.0 0.00 0.10 0.10 88 1010.2
20260510021817 9 117 0.0 0.0 0.00 0.10 0.10 87 1010.2
20260510021317 10 117 0.0 1.6 0.00 0.10 0.10 88 1010.2
20260510020817 10 117 0.0 1.6 0.00 0.10 0.10 87 1010.1
20260510020317 10 117 0.0 0.0 0.00 0.10 0.10 87 1010.1
20260510015316 10 117 0.0 3.2 0.00 0.10 0.10 87 1010.1
20260510014316 11 117 1.6 1.6 0.00 0.10 0.10 87 1010.2
20260510013816 11 117 0.0 1.6 0.00 0.10 0.10 87 1010.1
20260510013316 11 117 0.0 3.2 0.00 0.10 0.10 87 1010.1
20260510012817 11 117 0.0 3.2 0.00 0.10 0.10 87 1010.1
20260510012316 12 117 3.2 4.8 0.00 0.10 0.10 87 1010.1
20260510011816 12 117 1.6 4.8 0.00 0.10 0.10 87 1010.0
20260510011316 12 117 3.2 6.4 0.00 0.10 0.10 87 1010.0
20260510010816 12 117 1.6 6.4 0.00 0.10 0.10 87 1009.9
20260510010317 12 117 0.0 6.4 0.00 0.10 0.10 87 1009.9
20260510005817 12 117 1.6 6.4 0.00 0.10 0.10 87 1009.9
20260510005316 12 101 1.6 4.8 0.00 0.10 0.10 87 1009.9
20260510004316 12 101 0.0 4.8 0.00 0.10 0.10 87 1009.7
20260510003816 12 101 0.0 4.8 0.00 0.10 0.10 87 1009.5
20260510003316 12 101 3.2 3.2 0.00 0.10 0.10 87 1009.5
20260510002816 12 101 0.0 3.2 0.00 0.10 0.10 87 1009.6
20260510002316 12 101 0.0 4.8 0.00 0.10 0.10 87 1009.5
20260510001316 11 5 0.0 3.2 0.00 0.10 0.10 87 1009.4
20260510000816 11 5 0.0 3.2 0.00 0.10 0.10 86 1009.4
20260510000318 11 5 0.0 0.0 0.00 0.10 0.10 86 1009.3
20260509235816 11 5 0.0 0.0 0.00 0.10 0.10 86 1009.3
20260509235316 11 5 0.0 3.2 0.00 0.10 0.10 86 1009.2
20260509234816 12 5 0.0 4.8 0.00 0.10 0.10 85 1009.2
20260509234316 12 5 0.0 4.8 0.00 0.10 0.10 86 1009.3
20260509233816 12 5 0.0 1.6 0.00 0.10 0.10 85 1009.3
20260509233316 12 5 0.0 3.2 0.00 0.10 0.10 85 1009.3
20260509232816 12 5 0.0 3.2 0.00 0.10 0.10 85 1009.3
20260509232316 12 5 0.0 0.0 0.00 0.10 0.10 84 1009.3
20260509231816 12 5 0.0 1.6 0.00 0.10 0.10 84 1009.4
20260509231316 13 5 0.0 1.6 0.00 0.10 0.10 83 1009.4
20260509230816 13 5 0.0 3.2 0.00 0.10 0.10 83 1009.4
20260509230316 13 5 1.6 3.2 0.00 0.10 0.10 83 1009.4
20260509225816 13 5 0.0 3.2 0.00 0.10 0.10 82 1009.3
20260509225316 13 5 0.0 3.2 0.00 0.10 0.10 80 1009.2
20260509224816 13 5 0.0 3.2 0.00 0.10 0.10 81 1009.2
20260509224316 14 5 1.6 3.2 0.00 0.10 0.10 79 1009.1
20260509223816 14 5 0.0 3.2 0.00 0.10 0.10 78 1009.1
20260509223316 14 5 3.2 3.2 0.00 0.10 0.10 77 1009.1
20260509222316 14 5 0.0 4.8 0.00 0.10 0.10 79 1009.2
20260509221815 14 5 1.6 9.7 0.00 0.10 0.10 79 1009.2
20260509221316 14 5 3.2 9.7 0.00 0.10 0.10 79 1009.2
20260509220316 15 360 6.4 9.7 0.00 0.10 0.10 80 1009.2
20260509215316 14 276 9.7 9.7 0.00 0.10 0.10 80 1009.3
20260509214816 14 276 3.2 3.2 0.00 0.10 0.10 80 1009.2
20260509213816 14 276 0.0 0.0 0.00 0.10 0.10 82 1009.1
20260509213316 14 276 0.0 0.0 0.00 0.10 0.10 82 1009.1
20260509212815 13 276 0.0 0.0 0.00 0.10 0.10 81 1009.0
20260509212316 13 276 0.0 3.2 0.00 0.10 0.10 80 1009.1
20260509211816 13 276 0.0 3.2 0.00 0.10 0.10 81 1009.3
20260509211315 13 276 0.0 3.2 0.00 0.10 0.10 82 1009.4
20260509210815 13 247 0.0 8.0 0.00 0.10 0.10 81 1009.3
20260509210316 13 247 3.2 8.0 0.00 0.10 0.10 79 1009.4
20260509205817 13 327 1.6 11.3 0.00 0.10 0.10 79 1009.5
20260509205315 13 327 3.2 11.3 0.00 0.10 0.10 79 1009.5
20260509204815 14 237 4.8 14.5 0.00 0.10 0.10 79 1009.6
20260509204315 14 360 8.0 14.5 0.00 0.10 0.10 78 1009.7
20260509203815 15 9 14.5 14.5 0.00 0.10 0.10 78 1009.6
20260509202815 15 9 0.0 12.9 0.00 0.10 0.10 79 1009.8
20260509202315 15 9 6.4 12.9 0.00 0.10 0.10 79 1009.6
20260509201815 15 308 1.6 8.0 0.00 0.10 0.10 80 1009.7
20260509201315 15 308 1.6 6.4 0.00 0.10 0.10 80 1009.7
20260509200815 15 308 0.0 6.4 0.00 0.10 0.10 78 1009.6
20260509195815 14 217 3.2 3.2 0.00 0.10 0.10 80 1009.7
20260509195315 14 217 0.0 3.2 0.00 0.10 0.10 82 1009.8
20260509194815 13 217 1.6 3.2 0.00 0.10 0.10 80 1009.8
20260509194315 13 217 0.0 1.6 0.00 0.10 0.10 80 1009.9
20260509193815 13 217 0.0 3.2 0.00 0.10 0.10 79 1009.9
20260509193315 13 217 0.0 3.2 0.00 0.10 0.10 81 1010.0
20260509192815 13 217 1.6 8.0 0.00 0.10 0.10 82 1010.0
20260509192315 13 217 0.0 8.0 0.00 0.10 0.10 80 1010.0
20260509190815 13 335 3.2 4.8 0.00 0.10 0.10 84 1010.4
20260509190315 12 335 1.6 3.2 0.00 0.10 0.10 84 1010.5
20260509185315 12 335 1.6 4.8 0.03 0.10 0.10 85 1010.6
20260509184815 12 335 0.0 4.8 0.03 0.10 0.10 85 1010.6
20260509183815 12 335 1.6 4.8 0.03 0.10 0.10 85 1010.9
20260509183315 12 335 1.6 3.2 0.03 0.10 0.10 84 1010.9
20260509182815 12 335 0.0 4.8 0.03 0.10 0.10 84 1011.0
20260509182315 12 335 0.0 8.0 0.03 0.10 0.10 84 1011.0
20260509181815 12 335 4.8 8.0 0.03 0.10 0.10 84 1010.9
20260509181315 12 273 3.2 6.4 0.03 0.10 0.10 84 1010.9
20260509180815 12 267 1.6 4.8 0.03 0.10 0.10 84 1011.0
20260509180315 12 267 1.6 4.8 0.03 0.10 0.10 84 1011.0
20260509175815 12 267 0.0 4.8 0.00 0.08 0.08 84 1011.0
20260509175314 12 267 0.0 3.2 0.00 0.08 0.08 84 1011.0
20260509174815 12 267 0.0 4.8 0.00 0.08 0.08 83 1011.0
20260509174315 12 267 3.2 9.7 0.00 0.08 0.08 82 1011.0
20260509173815 12 267 1.6 9.7 0.03 0.08 0.08 82 1011.0
20260509173315 12 327 4.8 9.7 0.03 0.08 0.08 82 1010.9
20260509172815 13 344 0.0 8.0 0.03 0.08 0.08 83 1011.1
20260509172315 13 222 0.0 4.8 0.03 0.08 0.08 84 1011.1
20260509171315 13 222 3.2 6.4 0.03 0.08 0.08 84 1011.1
20260509170815 12 222 3.2 8.0 0.05 0.08 0.08 83 1011.1
20260509165814 12 224 1.6 6.4 0.08 0.08 0.08 84 1010.8
20260509165315 12 224 4.8 6.4 0.08 0.08 0.08 83 1010.5
20260509164814 12 322 4.8 8.0 0.08 0.08 0.08 83 1010.4
20260509164314 12 322 1.6 8.0 0.08 0.08 0.08 84 1010.3
20260509163814 12 286 0.0 9.7 0.05 0.05 0.05 84 1010.4
20260509163314 12 302 0.0 9.7 0.05 0.05 0.05 84 1010.6
20260509162814 12 283 4.8 11.3 0.05 0.05 0.05 83 1010.7
20260509162314 12 355 0.0 11.3 0.05 0.05 0.05 83 1010.7
20260509161814 13 311 3.2 6.4 0.05 0.05 0.05 83 1011.0
20260509161314 13 312 3.2 8.0 0.05 0.05 0.05 82 1011.1
20260509160314 13 288 1.6 8.0 0.03 0.03 0.03 82 1011.4
20260509155814 13 298 4.8 12.9 0.00 0.00 0.00 83 1011.5
20260509154314 13 275 4.8 11.3 0.00 0.00 0.00 81 1011.6
20260509153814 13 267 1.6 11.3 0.00 0.00 0.00 81 1011.6
20260509153314 14 291 0.0 6.4 0.00 0.00 0.00 79 1011.7
20260509152814 13 251 1.6 6.4 0.00 0.00 0.00 79 1011.6
20260509152314 13 235 0.0 6.4 0.00 0.00 0.00 78 1011.6
20260509150314 13 226 3.2 8.0 0.00 0.00 0.00 78 1011.5
20260509145814 13 175 6.4 8.0 0.00 0.00 0.00 78 1011.5
20260509144314 13 152 1.6 3.2 0.00 0.00 0.00 77 1011.4
20260509143814 13 152 0.0 3.2 0.00 0.00 0.00 78 1011.3
20260509143314 13 172 0.0 4.8 0.00 0.00 0.00 77 1011.2
20260509142814 13 172 0.0 4.8 0.00 0.00 0.00 78 1011.3
20260509142314 13 172 0.0 3.2 0.00 0.00 0.00 78 1011.2
20260509141314 13 172 1.6 4.8 0.00 0.00 0.00 78 1011.2
20260509140314 13 172 1.6 9.7 0.00 0.00 0.00 78 1011.1
20260509134813 13 194 1.6 4.8 0.00 0.00 0.00 77 1011.1
20260509134314 13 194 1.6 4.8 0.00 0.00 0.00 78 1011.0
20260509133814 13 253 1.6 11.3 0.00 0.00 0.00 77 1011.1
20260509133314 12 253 3.2 11.3 0.00 0.00 0.00 77 1010.9
20260509132813 13 171 3.2 9.7 0.00 0.00 0.00 79 1011.1
20260509131814 12 161 3.2 6.4 0.00 0.00 0.00 77 1010.9
20260509131313 12 160 0.0 3.2 0.00 0.00 0.00 78 1010.9
20260509130813 12 161 0.0 6.4 0.00 0.00 0.00 77 1011.0
20260509130313 12 161 0.0 6.4 0.00 0.00 0.00 78 1010.9
20260509125813 12 161 1.6 6.4 0.00 0.00 0.00 77 1010.9
20260509125313 12 161 3.2 6.4 0.00 0.00 0.00 78 1011.0
20260509124813 12 193 1.6 4.8 0.00 0.00 0.00 78 1011.0
20260509123813 12 194 0.0 4.8 0.00 0.00 0.00 79 1011.0
20260509123313 12 140 1.6 4.8 0.00 0.00 0.00 79 1010.9
20260509122813 12 121 0.0 3.2 0.00 0.00 0.00 79 1010.9
20260509121813 12 121 3.2 4.8 0.00 0.00 0.00 79 1010.9
20260509120813 11 121 0.0 3.2 0.00 0.00 0.00 79 1011.1
20260509115813 11 121 0.0 3.2 0.00 0.00 0.00 80 1011.0
20260509115313 11 121 0.0 1.6 0.00 0.00 0.00 80 1011.1
20260509114813 11 121 0.0 1.6 0.00 0.00 0.00 81 1011.1
20260509114313 11 121 0.0 3.2 0.00 0.00 0.00 82 1011.1
20260509113813 10 121 1.6 3.2 0.00 0.00 0.00 82 1010.9
20260509113313 11 121 0.0 3.2 0.00 0.00 0.00 81 1011.0
20260509112313 10 121 1.6 4.8 0.00 0.00 0.00 80 1011.0
20260509111813 10 121 0.0 4.8 0.00 0.00 0.00 81 1011.0
20260509111312 10 121 1.6 6.4 0.00 0.00 0.00 82 1010.9
20260509110813 10 125 4.8 6.4 0.00 0.00 0.00 82 1010.9
20260509110313 10 176 1.6 4.8 0.00 0.00 0.00 82 1010.9
20260509104813 10 176 0.0 0.0 0.00 0.00 0.00 83 1010.8
20260509104313 10 176 0.0 0.0 0.00 0.00 0.00 83 1010.7
20260509103812 10 176 0.0 0.0 0.00 0.00 0.00 83 1010.7
20260509103313 10 176 0.0 0.0 0.00 0.00 0.00 83 1010.7
20260509102812 10 176 0.0 0.0 0.00 0.00 0.00 83 1010.6
20260509101813 9 176 0.0 0.0 0.00 0.00 0.00 82 1010.6
20260509101313 10 176 0.0 0.0 0.00 0.00 0.00 82 1010.6
20260509100813 10 176 0.0 0.0 0.00 0.00 0.00 82 1010.6
20260509100312 10 176 0.0 0.0 0.00 0.00 0.00 82 1010.5
20260509095312 10 176 0.0 0.0 0.00 0.00 0.00 81 1010.8
20260509094812 10 176 0.0 0.0 0.00 0.00 0.00 81 1010.8
20260509094313 10 176 0.0 0.0 0.00 0.00 0.00 81 1010.8
20260509093313 10 176 0.0 0.0 0.00 0.00 0.00 81 1010.9
20260509092812 10 176 0.0 0.0 0.00 0.00 0.00 81 1010.9
20260509092312 10 176 0.0 0.0 0.00 0.00 0.00 81 1010.9
20260509091812 10 176 0.0 0.0 0.00 0.00 0.00 81 1011.0
20260509091312 10 176 0.0 0.0 0.00 0.00 0.00 82 1010.9
20260509090812 10 176 0.0 0.0 0.00 0.00 0.00 82 1011.0
20260509090312 10 176 0.0 0.0 0.00 0.00 0.00 81 1011.2
20260509085812 10 176 0.0 0.0 0.00 0.00 0.00 80 1010.9
20260509085312 10 176 0.0 1.6 0.00 0.00 0.00 81 1011.0
20260509084812 10 176 0.0 3.2 0.00 0.00 0.00 80 1011.0
20260509084312 10 176 0.0 3.2 0.00 0.00 0.00 79 1011.1
20260509083812 10 176 0.0 3.2 0.00 0.00 0.00 79 1011.2
20260509083312 10 176 0.0 0.0 0.00 0.00 0.00 80 1011.2
20260509082812 10 176 0.0 3.2 0.00 0.00 0.00 80 1011.3
20260509082312 10 176 0.0 3.2 0.00 0.00 0.00 80 1011.3